Total_Precipitation_Accumulation
0.27 0.27 0.26 0.25 0.21 0.20 0.23 0.27 0.27 0.22 0.22 0.22 0.12 0.08 0.12 0.20 0.24 0.24 0.35 0.22 0.07 0.03 0.02 0.02 0.01 0.02 0.02 0.05 0.09 0.11 0.23 0.30 0.29 0.28 0.24 0.23 0.22 0.18
0.26 0.29 0.27 0.24 0.19 0.19 0.22 0.29 0.31 0.26 0.18 0.13 0.10 0.10 0.15 0.22 0.19 0.17 0.20 0.14 0.07 0.04 0.04 0.04 0.03 0.04 0.08 0.16 0.21 0.22 0.26 0.27 0.28 0.27 0.25 0.22 0.21 0.20
0.17 0.18 0.17 0.13 0.14 0.14 0.14 0.18 0.21 0.21 0.18 0.17 0.17 0.17 0.19 0.29 0.26 0.19 0.15 0.14 0.12 0.07 0.04 0.03 0.03 0.08 0.15 0.21 0.28 0.32 0.29 0.27 0.30 0.31 0.30 0.29 0.27 0.25
0.12 0.10 0.08 0.07 0.08 0.06 0.07 0.08 0.11 0.15 0.16 0.17 0.19 0.20 0.24 0.29 0.31 0.25 0.19 0.17 0.18 0.09 0.05 0.04 0.05 0.06 0.08 0.11 0.19 0.31 0.37 0.36 0.34 0.34 0.33 0.33 0.33 0.31
0.04 0.04 0.04 0.04 0.05 0.04 0.02 0.01 0.02 0.05 0.13 0.19 0.23 0.22 0.23 0.22 0.26 0.28 0.27 0.30 0.25 0.16 0.10 0.07 0.06 0.07 0.07 0.07 0.12 0.21 0.33 0.43 0.45 0.44 0.43 0.43 0.43 0.41
0.01 0.01 0.01 0.01 0.01 0.01 0.01 0.01 0.01 0.06 0.12 0.17 0.21 0.21 0.21 0.18 0.23 0.30 0.34 0.41 0.36 0.27 0.22 0.17 0.13 0.09 0.09 0.07 0.08 0.14 0.24 0.40 0.54 0.57 0.59 0.64 0.66 0.61
0.00 0.00 0.00 0.00 0.00 0.00 0.00 0.00 0.01 0.04 0.05 0.07 0.09 0.09 0.09 0.11 0.13 0.21 0.34 0.47 0.44 0.35 0.33 0.33 0.31 0.27 0.23 0.17 0.09 0.07 0.14 0.28 0.48 0.61 0.66 0.73 0.82 0.84
0.00 0.00 0.00 0.00 0.00 0.00 0.00 0.00 0.00 0.01 0.02 0.04 0.02 0.02 0.04 0.07 0.10 0.21 0.35 0.43 0.52 0.52 0.48 0.48 0.46 0.44 0.38 0.29 0.19 0.10 0.08 0.16 0.29 0.44 0.56 0.67 0.74 0.83
0.00 0.00 0.00 0.00 0.00 0.00 0.00 0.00 0.00 0.00 0.00 0.02 0.01 0.01 0.01 0.05 0.10 0.21 0.36 0.53 0.66 0.71 0.67 0.67 0.57 0.52 0.48 0.40 0.29 0.18 0.11 0.10 0.15 0.23 0.32 0.43 0.50 0.55
0.00 0.00 0.00 0.00 0.00 0.00 0.00 0.00 0.00 0.00 0.00 0.00 0.00 0.00 0.00 0.02 0.06 0.11 0.20 0.35 0.56 0.67 0.73 0.83 0.82 0.73 0.69 0.61 0.50 0.32 0.20 0.14 0.14 0.15 0.16 0.20 0.28 0.32
0.00 0.00 0.00 0.00 0.00 0.00 0.00 0.00 0.00 0.00 0.00 0.00 0.00 0.00 0.00 0.00 0.01 0.02 0.03 0.05 0.15 0.24 0.30 0.49 0.68 0.77 0.84 0.83 0.72 0.56 0.40 0.27 0.21 0.19 0.16 0.16 0.19 0.21
0.00 0.00 0.00 0.00 0.00 0.00 0.00 0.00 0.00 0.00 0.00 0.00 0.00 0.00 0.00 0.00 0.00 0.00 0.01 0.02 0.04 0.08 0.09 0.15 0.27 0.39 0.55 0.64 0.65 0.63 0.55 0.49 0.40 0.29 0.21 0.17 0.19 0.16
0.00 0.00 0.00 0.00 0.00 0.00 0.00 0.00 0.00 0.00 0.00 0.00 0.00 0.00 0.00 0.00 0.00 0.00 0.01 0.02 0.05 0.08 0.09 0.12 0.16 0.20 0.28 0.38 0.45 0.49 0.52 0.53 0.49 0.43 0.36 0.28 0.21 0.16
0.00 0.00 0.00 0.00 0.00 0.00 0.00 0.00 0.00 0.00 0.00 0.00 0.00 0.00 0.00 0.00 0.00 0.00 0.00 0.02 0.04 0.07 0.09 0.10 0.17 0.18 0.19 0.24 0.30 0.32 0.36 0.46 0.54 0.56 0.49 0.41 0.32 0.25
0.00 0.00 0.00 0.00 0.00 0.00 0.00 0.00 0.00 0.00 0.00 0.00 0.00 0.00 0.00 0.00 0.00 0.00 0.00 0.01 0.02 0.03 0.03 0.04 0.10 0.17 0.19 0.22 0.24 0.25 0.28 0.35 0.42 0.51 0.59 0.54 0.44 0.36
0.00 0.00 0.00 0.00 0.00 0.00 0.00 0.00 0.00 0.00 0.00 0.00 0.00 0.00 0.00 0.00 0.00 0.00 0.00 0.00 0.01 0.02 0.01 0.02 0.05 0.09 0.16 0.20 0.23 0.26 0.29 0.34 0.33 0.36 0.46 0.58 0.64 0.65
0.00 0.00 0.00 0.00 0.00 0.00 0.00 0.00 0.00 0.00 0.00 0.00 0.00 0.00 0.00 0.00 0.00 0.00 0.00 0.00 0.00 0.00 0.01 0.01 0.02 0.05 0.08 0.09 0.17 0.23 0.27 0.30 0.28 0.27 0.29 0.39 0.49 0.56
0.00 0.00 0.00 0.00 0.00 0.00 0.00 0.00 0.00 0.00 0.00 0.00 0.00 0.00 0.00 0.00 0.00 0.00 0.00 0.00 0.00 0.01 0.01 0.01 0.02 0.03 0.06 0.09 0.06 0.10 0.15 0.18 0.20 0.24 0.29 0.30 0.32 0.31
0.00 0.00 0.00 0.00 0.00 0.00 0.00 0.00 0.00 0.00 0.00 0.00 0.00 0.00 0.00 0.00 0.00 0.00 0.00 0.00 0.00 0.00 0.01 0.01 0.02 0.02 0.04 0.07 0.13 0.07 0.05 0.07 0.10 0.18 0.29 0.28 0.26 0.23
0.00 0.00 0.00 0.00 0.00 0.00 0.00 0.00 0.00 0.00 0.00 0.00 0.00 0.00 0.00 0.00 0.00 0.00 0.00 0.00 0.00 0.00 0.00 0.00 0.01 0.02 0.03 0.05 0.07 0.12 0.11 0.07 0.07 0.10 0.17 0.21 0.21 0.16
0.00 0.00 0.00 0.00 0.00 0.00 0.00 0.00 0.00 0.00 0.00 0.00 0.00 0.00 0.00 0.00 0.00 0.00 0.00 0.00 0.00 0.00 0.00 0.00 0.00 0.01 0.02 0.04 0.07 0.09 0.12 0.12 0.11 0.11 0.12 0.16 0.20 0.22
0.00 0.00 0.00 0.00 0.00 0.00 0.00 0.00 0.00 0.00 0.00 0.00 0.00 0.00 0.00 0.00 0.00 0.00 0.00 0.00 0.00 0.00 0.00 0.00 0.00 0.01 0.03 0.06 0.08 0.08 0.09 0.13 0.15 0.13 0.12 0.11 0.13 0.16
0.00 0.00 0.00 0.00 0.00 0.00 0.00 0.00 0.00 0.00 0.00 0.00 0.00 0.00 0.00 0.00 0.00 0.00 0.00 0.00 0.00 0.00 0.00 0.00 0.00 0.00 0.01 0.03 0.06 0.08 0.10 0.13 0.18 0.22 0.23 0.14 0.06 0.04